Time,TemperatureF,DewpointF,PressureIn,WindDirection,WindDirectionDegrees,WindSpeedMPH,WindSpeedGustMPH,Humidity,HourlyPrecipIn,Conditions,Clouds,dailyrainin,SoftwareType,DateUTC
2013-04-30 00:02:00,52.0,49.0,30.13,ESE,112,0.0,1.0,90,0.00,,,0.06,,2013-04-30 04:02:00,
2013-04-30 00:12:00,52.0,49.0,30.13,ESE,112,0.0,1.0,90,0.00,,,0.06,,2013-04-30 04:12:00,
2013-04-30 00:22:00,52.0,49.0,30.13,ESE,112,0.0,1.0,90,0.00,,,0.06,,2013-04-30 04:22:00,
2013-04-30 00:32:00,53.0,50.0,30.12,SW,215,1.0,3.0,88,0.00,,,0.05,,2013-04-30 04:32:00,
2013-04-30 00:42:00,53.0,50.0,30.12,SW,215,1.0,3.0,88,0.00,,,0.05,,2013-04-30 04:42:00,
2013-04-30 00:52:00,52.0,49.0,30.12,SW,225,0.0,1.0,88,0.00,,,0.05,,2013-04-30 04:52:00,
2013-04-30 01:02:00,52.0,49.0,30.12,SW,226,0.0,1.0,89,0.00,,,0.05,,2013-04-30 05:02:00,
2013-04-30 01:12:00,52.0,49.0,30.12,SW,226,0.0,1.0,89,0.00,,,0.05,,2013-04-30 05:12:00,
2013-04-30 01:22:00,52.0,49.0,30.12,SW,224,0.0,1.0,89,0.00,,,0.05,,2013-04-30 05:22:00,
2013-04-30 01:31:00,52.0,49.0,30.11,SW,219,0.0,0.0,90,0.00,,,0.05,,2013-04-30 05:31:00,
2013-04-30 01:42:00,52.0,49.0,30.11,SW,219,0.0,0.0,90,0.00,,,0.05,,2013-04-30 05:42:00,
2013-04-30 01:51:00,51.0,48.0,30.11,ENE,68,1.0,1.0,90,0.00,,,0.05,,2013-04-30 05:51:00,
2013-04-30 02:02:00,52.0,49.0,30.10,ENE,68,1.0,1.0,90,0.00,,,0.05,,2013-04-30 06:02:00,
2013-04-30 02:12:00,52.0,49.0,30.10,ENE,68,1.0,1.0,90,0.00,,,0.05,,2013-04-30 06:12:00,
2013-04-30 02:21:00,52.0,49.0,30.10,ENE,58,2.0,2.0,89,0.00,,,0.04,,2013-04-30 06:21:00,
2013-04-30 02:32:00,52.0,49.0,30.10,ENE,58,2.0,2.0,89,0.00,,,0.04,,2013-04-30 06:32:00,
2013-04-30 02:41:00,52.0,49.0,30.10,ENE,58,2.0,2.0,89,0.00,,,0.04,,2013-04-30 06:41:00,
2013-04-30 02:52:00,52.0,48.0,30.09,NE,54,2.0,2.0,87,0.00,,,0.04,,2013-04-30 06:52:00,
2013-04-30 03:01:00,53.0,49.0,30.09,ENE,64,2.0,3.0,86,0.00,,,0.04,,2013-04-30 07:01:00,
2013-04-30 03:11:00,53.0,49.0,30.09,ENE,64,2.0,3.0,86,0.00,,,0.04,,2013-04-30 07:11:00,
2013-04-30 03:21:00,53.0,48.0,30.09,NE,49,0.0,2.0,83,0.00,,,0.04,,2013-04-30 07:21:00,
2013-04-30 03:32:00,52.0,47.0,30.09,East,90,0.0,1.0,84,0.00,,,0.00,,2013-04-30 07:32:00,
2013-04-30 03:42:00,52.0,47.0,30.09,East,90,0.0,1.0,84,0.00,,,0.00,,2013-04-30 07:42:00,
2013-04-30 03:52:00,52.0,48.0,30.10,ENE,57,0.0,1.0,85,0.00,,,0.00,,2013-04-30 07:52:00,
2013-04-30 04:02:00,52.0,47.0,30.10,NE,56,0.0,0.0,84,0.00,,,0.00,,2013-04-30 08:02:00,
2013-04-30 04:11:00,52.0,47.0,30.10,NE,56,0.0,0.0,84,0.00,,,0.00,,2013-04-30 08:11:00,
2013-04-30 04:22:00,52.0,48.0,30.10,ENE,71,0.0,0.0,86,0.00,,,0.00,,2013-04-30 08:22:00,
2013-04-30 04:32:00,51.0,47.0,30.11,ENE,71,0.0,0.0,87,0.00,,,0.00,,2013-04-30 08:32:00,
2013-04-30 04:42:00,51.0,47.0,30.11,ENE,71,0.0,0.0,87,0.00,,,0.00,,2013-04-30 08:42:00,
2013-04-30 04:52:00,51.0,48.0,30.11,ENE,71,0.0,0.0,89,0.00,,,0.00,,2013-04-30 08:52:00,
2013-04-30 05:02:00,51.0,48.0,30.11,ENE,71,0.0,0.0,89,0.00,,,0.00,,2013-04-30 09:02:00,
2013-04-30 05:11:00,51.0,48.0,30.11,ENE,71,0.0,0.0,89,0.00,,,0.00,,2013-04-30 09:11:00,
2013-04-30 05:22:00,50.0,47.0,30.12,ENE,70,0.0,0.0,89,0.00,,,0.00,,2013-04-30 09:22:00,
2013-04-30 05:33:00,51.0,48.0,30.12,East,79,0.0,0.0,88,0.00,,,0.00,,2013-04-30 09:33:00,
2013-04-30 05:43:00,51.0,48.0,30.12,East,79,0.0,0.0,88,0.00,,,0.00,,2013-04-30 09:43:00,
2013-04-30 05:52:00,50.0,47.0,30.13,East,79,0.0,0.0,89,0.00,,,0.00,,2013-04-30 09:52:00,
2013-04-30 06:03:00,51.0,48.0,30.12,East,79,0.0,0.0,88,0.00,,,0.00,,2013-04-30 10:03:00,
2013-04-30 06:12:00,51.0,48.0,30.12,East,79,0.0,0.0,88,0.00,,,0.00,,2013-04-30 10:12:00,
2013-04-30 06:22:00,51.0,48.0,30.13,East,79,0.0,0.0,88,0.00,,,0.00,,2013-04-30 10:22:00,
2013-04-30 06:32:00,51.0,47.0,30.13,East,79,0.0,0.0,87,0.00,,,0.00,,2013-04-30 10:32:00,
2013-04-30 06:41:00,51.0,47.0,30.13,East,79,0.0,0.0,87,0.00,,,0.00,,2013-04-30 10:41:00,
2013-04-30 06:52:00,51.0,47.0,30.13,East,79,0.0,0.0,87,0.00,,,0.00,,2013-04-30 10:52:00,
2013-04-30 07:02:00,51.0,47.0,30.14,ENE,65,0.0,0.0,87,0.00,,,0.00,,2013-04-30 11:02:00,
2013-04-30 07:11:00,51.0,47.0,30.14,ENE,65,0.0,0.0,87,0.00,,,0.00,,2013-04-30 11:11:00,
2013-04-30 07:21:00,51.0,47.0,30.14,ENE,67,1.0,2.0,87,0.00,,,0.00,,2013-04-30 11:21:00,
2013-04-30 07:32:00,52.0,48.0,30.15,ENE,58,2.0,3.0,87,0.00,,,0.00,,2013-04-30 11:32:00,
2013-04-30 07:42:00,52.0,48.0,30.15,ENE,58,2.0,3.0,87,0.00,,,0.00,,2013-04-30 11:42:00,
2013-04-30 07:51:00,52.0,48.0,30.16,NE,43,1.0,3.0,87,0.00,,,0.00,,2013-04-30 11:51:00,
2013-04-30 08:01:00,51.0,47.0,30.16,ENE,63,0.0,1.0,87,0.00,,,0.00,,2013-04-30 12:01:00,
2013-04-30 08:11:00,51.0,47.0,30.16,ENE,63,0.0,1.0,87,0.00,,,0.00,,2013-04-30 12:11:00,
2013-04-30 08:22:00,51.0,48.0,30.16,NNE,27,0.0,1.0,88,0.00,,,0.00,,2013-04-30 12:22:00,
2013-04-30 08:31:00,51.0,48.0,30.17,ESE,108,0.0,1.0,89,0.00,,,0.00,,2013-04-30 12:31:00,
2013-04-30 08:41:00,51.0,48.0,30.17,ESE,108,0.0,1.0,89,0.00,,,0.00,,2013-04-30 12:41:00,
2013-04-30 08:51:00,52.0,48.0,30.17,ESE,109,0.0,0.0,87,0.00,,,0.00,,2013-04-30 12:51:00,
2013-04-30 09:01:00,53.0,49.0,30.18,NW,316,0.0,1.0,87,0.00,,,0.00,,2013-04-30 13:01:00,
2013-04-30 09:11:00,53.0,49.0,30.18,NW,316,0.0,1.0,87,0.00,,,0.00,,2013-04-30 13:11:00,
2013-04-30 09:21:00,53.0,50.0,30.18,NW,304,0.0,1.0,88,0.00,,,0.00,,2013-04-30 13:21:00,
2013-04-30 09:31:00,53.0,50.0,30.18,NW,315,0.0,4.0,88,0.00,,,0.00,,2013-04-30 13:31:00,
2013-04-30 09:41:00,53.0,50.0,30.18,NW,315,0.0,4.0,88,0.00,,,0.00,,2013-04-30 13:41:00,
2013-04-30 09:51:00,54.0,50.0,30.18,WNW,287,0.0,1.0,87,0.00,,,0.00,,2013-04-30 13:51:00,
2013-04-30 10:02:00,55.0,51.0,30.18,NW,311,0.0,6.0,86,0.00,,,0.00,,2013-04-30 14:02:00,
2013-04-30 10:11:00,56.0,51.0,30.19,NE,34,1.0,3.0,84,0.00,,,0.00,,2013-04-30 14:11:00,
2013-04-30 10:21:00,56.0,51.0,30.19,NE,34,1.0,3.0,84,0.00,,,0.00,,2013-04-30 14:21:00,
2013-04-30 10:31:00,56.0,51.0,30.19,SW,222,0.0,1.0,83,0.00,,,0.00,,2013-04-30 14:31:00,
2013-04-30 10:41:00,56.0,51.0,30.19,SW,222,0.0,1.0,83,0.00,,,0.00,,2013-04-30 14:41:00,
2013-04-30 10:52:00,57.0,52.0,30.19,NNW,333,0.0,1.0,82,0.00,,,0.00,,2013-04-30 14:52:00,
2013-04-30 11:02:00,57.0,53.0,30.18,WNW,290,0.0,2.0,85,0.00,,,0.00,,2013-04-30 15:02:00,
2013-04-30 11:11:00,57.0,53.0,30.18,WNW,290,0.0,2.0,85,0.00,,,0.00,,2013-04-30 15:11:00,
2013-04-30 11:21:00,58.0,52.0,30.19,NW,314,0.0,3.0,81,0.00,,,0.00,,2013-04-30 15:21:00,
2013-04-30 11:32:00,60.0,51.0,30.19,WNW,297,1.0,5.0,73,0.00,,,0.00,,2013-04-30 15:32:00,
2013-04-30 11:42:00,60.0,51.0,30.19,WNW,297,1.0,5.0,73,0.00,,,0.00,,2013-04-30 15:42:00,
2013-04-30 11:52:00,61.0,51.0,30.19,WSW,248,0.0,5.0,69,0.00,,,0.00,,2013-04-30 15:52:00,
2013-04-30 12:02:00,61.0,52.0,30.19,WNW,293,0.0,3.0,72,0.00,,,0.00,,2013-04-30 16:02:00,
2013-04-30 12:12:00,61.0,52.0,30.19,WNW,293,0.0,3.0,72,0.00,,,0.00,,2013-04-30 16:12:00,
2013-04-30 12:23:00,60.0,51.0,30.19,NW,326,4.0,8.0,72,0.00,,,0.00,,2013-04-30 16:23:00,
2013-04-30 12:33:00,64.0,54.0,30.18,NW,321,1.0,5.0,69,0.00,,,0.00,,2013-04-30 16:33:00,
2013-04-30 12:42:00,64.0,54.0,30.18,NW,321,1.0,5.0,69,0.00,,,0.00,,2013-04-30 16:42:00,
2013-04-30 12:52:00,66.0,53.0,30.18,NNW,333,4.0,7.0,62,0.00,,,0.00,,2013-04-30 16:52:00,
2013-04-30 13:02:00,63.0,52.0,30.18,NNE,20,1.0,6.0,67,0.00,,,0.00,,2013-04-30 17:02:00,
2013-04-30 13:12:00,63.0,52.0,30.18,NNE,20,1.0,6.0,67,0.00,,,0.00,,2013-04-30 17:12:00,
2013-04-30 13:22:00,65.0,53.0,30.18,ENE,63,1.0,5.0,66,0.00,,,0.00,,2013-04-30 17:22:00,
2013-04-30 13:32:00,64.0,52.0,30.17,North,355,1.0,5.0,66,0.00,,,0.00,,2013-04-30 17:32:00,
2013-04-30 13:42:00,64.0,52.0,30.17,North,355,1.0,5.0,66,0.00,,,0.00,,2013-04-30 17:42:00,
2013-04-30 13:52:00,67.0,52.0,30.16,NW,314,2.0,6.0,59,0.00,,,0.00,,2013-04-30 17:52:00,
2013-04-30 14:01:00,67.0,52.0,30.16,West,259,1.0,8.0,58,0.00,,,0.00,,2013-04-30 18:01:00,
2013-04-30 14:11:00,67.0,52.0,30.16,West,259,1.0,8.0,58,0.00,,,0.00,,2013-04-30 18:11:00,
2013-04-30 14:22:00,66.0,50.0,30.16,SW,233,4.0,8.0,57,0.00,,,0.00,,2013-04-30 18:22:00,
2013-04-30 14:32:00,67.0,52.0,30.16,North,9,0.0,8.0,58,0.00,,,0.00,,2013-04-30 18:32:00,
2013-04-30 14:42:00,67.0,52.0,30.16,North,9,0.0,8.0,58,0.00,,,0.00,,2013-04-30 18:42:00,
2013-04-30 14:52:00,66.0,53.0,30.16,WNW,301,3.0,7.0,62,0.00,,,0.00,,2013-04-30 18:52:00,
2013-04-30 15:01:00,66.0,51.0,30.15,NW,309,3.0,7.0,59,0.00,,,0.00,,2013-04-30 19:01:00,
2013-04-30 15:11:00,66.0,51.0,30.15,NW,309,3.0,7.0,59,0.00,,,0.00,,2013-04-30 19:11:00,
2013-04-30 15:22:00,65.0,51.0,30.15,NW,307,2.0,7.0,61,0.00,,,0.00,,2013-04-30 19:22:00,
2013-04-30 15:32:00,67.0,51.0,30.15,NNE,30,3.0,7.0,57,0.00,,,0.00,,2013-04-30 19:32:00,
2013-04-30 15:42:00,67.0,51.0,30.15,NNE,30,3.0,7.0,57,0.00,,,0.00,,2013-04-30 19:42:00,
2013-04-30 15:52:00,66.0,52.0,30.16,West,278,1.0,4.0,61,0.00,,,0.00,,2013-04-30 19:52:00,
2013-04-30 16:02:00,65.0,53.0,30.15,WNW,293,1.0,3.0,64,0.00,,,0.00,,2013-04-30 20:02:00,
2013-04-30 16:11:00,65.0,53.0,30.15,WNW,293,1.0,3.0,64,0.00,,,0.00,,2013-04-30 20:11:00,
2013-04-30 16:21:00,64.0,53.0,30.15,SW,233,2.0,6.0,67,0.00,,,0.00,,2013-04-30 20:21:00,
2013-04-30 16:32:00,67.0,54.0,30.15,WNW,282,1.0,6.0,63,0.00,,,0.00,,2013-04-30 20:32:00,
2013-04-30 16:42:00,67.0,54.0,30.15,WNW,282,1.0,6.0,63,0.00,,,0.00,,2013-04-30 20:42:00,
2013-04-30 16:52:00,66.0,54.0,30.15,North,9,1.0,4.0,65,0.00,,,0.00,,2013-04-30 20:52:00,
2013-04-30 17:02:00,64.0,54.0,30.16,NNE,30,0.0,3.0,69,0.00,,,0.00,,2013-04-30 21:02:00,
2013-04-30 17:11:00,64.0,54.0,30.16,NNE,30,0.0,3.0,69,0.00,,,0.00,,2013-04-30 21:11:00,
2013-04-30 17:22:00,64.0,54.0,30.16,ESE,116,0.0,4.0,71,0.00,,,0.00,,2013-04-30 21:22:00,
2013-04-30 17:32:00,64.0,55.0,30.17,WNW,302,1.0,5.0,72,0.00,,,0.00,,2013-04-30 21:32:00,
2013-04-30 17:42:00,64.0,55.0,30.17,WNW,302,1.0,5.0,72,0.00,,,0.00,,2013-04-30 21:42:00,
2013-04-30 17:52:00,62.0,53.0,30.17,SW,223,2.0,5.0,72,0.00,,,0.00,,2013-04-30 21:52:00,
2013-04-30 18:02:00,62.0,54.0,30.18,SW,224,0.0,4.0,75,0.00,,,0.00,,2013-04-30 22:02:00,
2013-04-30 18:12:00,62.0,54.0,30.18,SW,224,0.0,4.0,75,0.00,,,0.00,,2013-04-30 22:12:00,
2013-04-30 18:23:00,62.0,54.0,30.18,WNW,283,1.0,4.0,76,0.00,,,0.00,,2013-04-30 22:23:00,
2013-04-30 18:33:00,62.0,55.0,30.18,SW,229,0.0,3.0,77,0.00,,,0.00,,2013-04-30 22:33:00,
2013-04-30 18:42:00,62.0,55.0,30.18,SW,229,0.0,3.0,77,0.00,,,0.00,,2013-04-30 22:42:00,
2013-04-30 18:52:00,61.0,53.0,30.18,WNW,290,2.0,4.0,76,0.00,,,0.00,,2013-04-30 22:52:00,
2013-04-30 19:02:00,62.0,54.0,30.18,WSW,243,1.0,4.0,76,0.00,,,0.00,,2013-04-30 23:02:00,
2013-04-30 19:12:00,62.0,54.0,30.18,WSW,243,1.0,4.0,76,0.00,,,0.00,,2013-04-30 23:12:00,
2013-04-30 19:22:00,61.0,54.0,30.18,WNW,290,0.0,3.0,78,0.00,,,0.00,,2013-04-30 23:22:00,
2013-04-30 19:32:00,62.0,54.0,30.19,WSW,250,1.0,3.0,76,0.00,,,0.00,,2013-04-30 23:32:00,
2013-04-30 19:42:00,62.0,54.0,30.19,WSW,250,1.0,3.0,76,0.00,,,0.00,,2013-04-30 23:42:00,
2013-04-30 19:52:00,62.0,54.0,30.19,WNW,301,0.0,3.0,76,0.00,,,0.00,,2013-04-30 23:52:00,
2013-04-30 20:02:00,61.0,54.0,30.19,ENE,78,0.0,5.0,77,0.00,,,0.00,,2013-05-01 00:02:00,
2013-04-30 20:11:00,61.0,54.0,30.19,ENE,78,0.0,5.0,77,0.00,,,0.00,,2013-05-01 00:11:00,
2013-04-30 20:22:00,60.0,53.0,30.20,NNE,26,0.0,3.0,79,0.00,,,0.00,,2013-05-01 00:22:00,
2013-04-30 20:32:00,59.0,53.0,30.20,West,277,0.0,1.0,81,0.00,,,0.00,,2013-05-01 00:32:00,
2013-04-30 20:42:00,59.0,53.0,30.20,West,277,0.0,1.0,81,0.00,,,0.00,,2013-05-01 00:42:00,
2013-04-30 20:51:00,58.0,53.0,30.21,West,277,0.0,1.0,83,0.00,,,0.00,,2013-05-01 00:51:00,
2013-04-30 21:01:00,57.0,52.0,30.21,West,276,0.0,1.0,84,0.00,,,0.00,,2013-05-01 01:01:00,
2013-04-30 21:11:00,57.0,52.0,30.21,West,276,0.0,1.0,84,0.00,,,0.00,,2013-05-01 01:11:00,
2013-04-30 21:21:00,57.0,53.0,30.21,NNW,335,0.0,1.0,85,0.00,,,0.00,,2013-05-01 01:21:00,
2013-04-30 21:32:00,56.0,52.0,30.22,ESE,105,0.0,1.0,86,0.00,,,0.00,,2013-05-01 01:32:00,
2013-04-30 21:42:00,56.0,52.0,30.22,ESE,105,0.0,1.0,86,0.00,,,0.00,,2013-05-01 01:42:00,
2013-04-30 21:52:00,56.0,52.0,30.22,ENE,64,0.0,0.0,87,0.00,,,0.00,,2013-05-01 01:52:00,
2013-04-30 22:02:00,56.0,52.0,30.23,NW,316,0.0,0.0,87,0.00,,,0.00,,2013-05-01 02:02:00,
2013-04-30 22:11:00,56.0,52.0,30.23,NW,316,0.0,0.0,87,0.00,,,0.00,,2013-05-01 02:11:00,
2013-04-30 22:21:00,55.0,52.0,30.23,ENE,64,0.0,0.0,88,0.00,,,0.00,,2013-05-01 02:21:00,
2013-04-30 22:32:00,55.0,52.0,30.24,ENE,63,0.0,0.0,91,0.00,,,0.00,,2013-05-01 02:32:00,
2013-04-30 22:42:00,55.0,52.0,30.24,ENE,63,0.0,0.0,91,0.00,,,0.00,,2013-05-01 02:42:00,
2013-04-30 22:52:00,56.0,53.0,30.24,WNW,297,0.0,1.0,91,0.00,,,0.00,,2013-05-01 02:52:00,
2013-04-30 23:02:00,56.0,53.0,30.25,NE,53,0.0,1.0,91,0.00,,,0.00,,2013-05-01 03:02:00,
2013-04-30 23:11:00,56.0,53.0,30.25,NE,53,0.0,1.0,91,0.00,,,0.00,,2013-05-01 03:11:00,
2013-04-30 23:21:00,55.0,52.0,30.25,West,276,0.0,1.0,91,0.00,,,0.00,,2013-05-01 03:21:00,
2013-04-30 23:33:00,55.0,53.0,30.25,NW,318,0.0,4.0,92,0.00,,,0.00,,2013-05-01 03:33:00,
2013-04-30 23:43:00,55.0,53.0,30.25,NW,318,0.0,4.0,92,0.00,,,0.00,,2013-05-01 03:43:00,
2013-04-30 23:53:00,55.0,53.0,30.26,WNW,301,0.0,2.0,92,0.00,,,0.00,,2013-05-01 03:53:00,